LVM3 CUS R/B, 67233

Orbit data source: Space-Track

LVM3 CUS R/B, 67233 is space debris in LEO originally from an Indian launch on Wed, 24 Dec 2025 UTC launched from the Sirharikota (SRI). Debris objects in space refer to the collection of defunct objects orbiting the Earth. Examples of debris include non-operational satellites, rocket bodies, and fragments generated from explosions, collisions, or faulty payload assembly.

Loading next visibility...
Identifier
67233, 2025-309B
Orbit
LEO
Country
Flag of ININ / IND
Related business
Manufacturer
ISRO
Mission
Spacecraft
Bus & Motor
C25, CE-20
Mass
4,400 kg wet, 4,400 kg dry
Launch date (UTC)
2025-12-24 (5 months ago)
Launch vehicle
Unknown
Launch site
Sirharikota (SRI)
Object type
Payload
Rocket body
Debris
Shape & HBR
Cyl + 1 Nozzle, 8.0 m
Radar Cross Section
48.836 m²

Expand to show TLE details & history
Last TLE update: 9 hours ago

TLE from 9 hours ago
0 LVM3 CUS R/B
1 67233U 25309B   26132.00827745  .00004468  00000-0  21052-3 0  9992
2 67233  52.9257 133.7965 0012272  52.4788 307.7319 15.21438801 21135
Epoch: 2026-05-12T00:11Z
TLE epoch observation values (Epoch: 2026-05-12T00:11:55.171Z)
Latitude
-0.00006°
Longitude
-98.97225°
Altitude
497.211 km
Speed
7.62 km/s
True Right ascension
08h 55m 11s
True Declination
0° 00' 00"
Sunlit
Object was in daylight at epoch
Visualization orbit readout
Latitude
Unknown
Longitude
Unknown
Altitude
Unknown
Speed
Unknown
Apparent Right ascension
Unknown
Apparent Declination
Unknown
Sunlit
N/A
Visualization observer readout
Local Sidereal Time
17:54:02
Azimuth
Unknown
Elevation
Unknown
Doppler factor
Unknown
Orbital elements
Apogee altitude
510.236 km
Perigee altitude
493.35 km
Semi-major axis
6,879.93 km
Eccentricity
0.00123
Inclination
52.9257°
RAAN
133.7965°
Arg. of periapsis
52.4788°
True anomaly
307.62058°
Mean anomaly
307.7319°
Eccentric anomaly
307.67625°
Mean motion
3.80336 °/min
Orbital period
94.65 mins
BSTAR
0.00021052
Loading maneuver chart data...
Computing Atmospheric mass density...
Loading historical data...
Loading historical data...
Loading historical data...
Loading historical data...
Loading historical data...
Loading historical data...
Loading historical data...
Other satellites on launch #309 in the year 2025 (2025-12-24 UTC)

Documentation

Showing up to 5 results
|